Location: *
(41.7492°S, 135.4150°W)
Time: 23:51:13
(UTC+00:00)

ADEOS - Pass Details

Date: 20 September 2021
Orbit: 792 x 795 km, 98.9° (Epoch: 25 October)

Event Time Altitude Azimuth Distance (km) Brightness Sun altitude
Rises 14:02:01 0° 355° (N) 3,284 6.6 -10.4°
Reaches altitude 10° 14:04:28 10° 347° (NNW) 2,364 5.8 -10.0°
Maximum altitude 14:09:21 39° 278° (W) 1,180 4.0 -9.1°
Drops below altitude 10° 14:14:18 10° 209° (SSW) 2,395 5.8 -8.1°
Sets 14:16:48 0° 201° (SSW) 3,333 6.6 -7.7°
